Time,TemperatureF,DewpointF,PressureIn,WindDirection,WindDirectionDegrees,WindSpeedMPH,WindSpeedGustMPH,Humidity,HourlyPrecipIn,Conditions,Clouds,dailyrainin,SoftwareType,DateUTC
2013-10-04 00:00:00,53.2,33.0,30.14,North,8,0.0,0.0,46,0.00,CL,CL,0.00,WeatherDisplay:10.37,2013-10-04 04:00:00,
2013-10-04 01:00:00,53.2,34.0,30.14,North,8,1.0,1.0,48,0.00,CL,CL,0.00,WeatherDisplay:10.37,2013-10-04 05:00:00,
2013-10-04 02:00:00,52.2,32.5,30.14,North,8,0.0,0.0,47,0.00,CL,CL,0.00,WeatherDisplay:10.37,2013-10-04 06:00:00,
2013-10-04 03:00:00,52.2,35.1,30.17,North,8,0.0,0.0,52,0.00,CL,CL,0.00,WeatherDisplay:10.37,2013-10-04 07:00:00,
2013-10-04 03:04:00,65.0,59.1,30.12,SSE,161,0.0,0.0,81,0.00,CLR,CLR,0.00,WeatherDisplay:10.37,2013-10-04 07:04:00,
2013-10-04 03:05:00,65.0,59.1,30.12,SSE,161,0.0,0.0,81,0.00,CLR,CLR,0.00,WeatherDisplay:10.37,2013-10-04 07:05:00,
2013-10-04 03:06:00,65.0,59.1,30.12,SSE,161,0.0,0.0,81,0.00,CLR,CLR,0.00,WeatherDisplay:10.37,2013-10-04 07:06:00,
2013-10-04 03:07:00,65.0,59.1,30.12,SSE,161,0.0,0.0,81,0.00,CLR,CLR,0.00,WeatherDisplay:10.37,2013-10-04 07:07:00,
2013-10-04 03:08:00,65.0,59.1,30.12,SSE,161,0.0,0.0,81,0.00,CLR,CLR,0.00,WeatherDisplay:10.37,2013-10-04 07:08:00,
2013-10-04 03:09:00,65.0,59.1,30.12,SSE,161,0.0,0.0,81,0.00,CLR,CLR,0.00,WeatherDisplay:10.37,2013-10-04 07:09:00,
2013-10-04 03:10:00,65.0,59.1,30.12,SSE,161,0.0,0.0,81,0.00,CLR,CLR,0.00,WeatherDisplay:10.37,2013-10-04 07:10:00,
2013-10-04 03:11:00,65.0,59.1,30.12,SSE,161,0.0,0.0,81,0.00,CLR,CLR,0.00,WeatherDisplay:10.37,2013-10-04 07:11:00,
2013-10-04 03:12:00,65.0,59.1,30.12,SSE,161,0.0,0.0,81,0.00,CLR,CLR,0.00,WeatherDisplay:10.37,2013-10-04 07:12:00,
2013-10-04 03:13:00,65.0,59.1,30.12,SSE,161,0.0,0.0,81,0.00,CLR,CLR,0.00,WeatherDisplay:10.37,2013-10-04 07:13:00,
2013-10-04 03:14:00,65.0,59.1,30.12,SSE,161,0.0,0.0,81,0.00,CLR,CLR,0.00,WeatherDisplay:10.37,2013-10-04 07:14:00,
2013-10-04 03:15:00,65.0,59.1,30.12,SSE,161,0.0,0.0,81,0.00,CLR,CLR,0.00,WeatherDisplay:10.37,2013-10-04 07:15:00,
2013-10-04 03:16:00,65.0,59.1,30.12,SSE,161,0.0,0.0,81,0.00,CLR,CLR,0.00,WeatherDisplay:10.37,2013-10-04 07:16:00,
2013-10-04 03:17:00,65.0,59.1,30.12,SSE,161,0.0,0.0,81,0.00,CLR,CLR,0.00,WeatherDisplay:10.37,2013-10-04 07:17:00,
2013-10-04 03:18:00,65.0,59.1,30.12,SSE,161,0.0,0.0,81,0.00,CLR,CLR,0.00,WeatherDisplay:10.37,2013-10-04 07:18:00,
2013-10-04 04:00:00,52.5,38.2,30.20,North,8,0.0,0.0,58,0.00,CL,CL,0.00,WeatherDisplay:10.37,2013-10-04 08:00:00,
2013-10-04 05:00:00,54.9,44.1,30.20,North,8,2.0,2.0,67,0.00,CL,CL,0.00,WeatherDisplay:10.37,2013-10-04 09:00:00,
2013-10-04 06:00:00,59.7,59.7,30.20,North,9,3.0,3.0,100,0.00,CL,CL,0.00,WeatherDisplay:10.37,2013-10-04 10:00:00,
2013-10-04 07:00:00,66.2,57.3,30.17,North,9,5.0,6.0,73,0.00,CL,CL,0.00,WeatherDisplay:10.37,2013-10-04 11:00:00,
2013-10-04 08:00:00,72.6,58.8,30.20,North,10,3.0,6.0,62,0.00,CL,CL,0.00,WeatherDisplay:10.37,2013-10-04 12:00:00,
2013-10-04 08:10:00,68.7,62.7,30.06,North,0,1.2,0.0,81,0.00,CLR,,0.00,WeatherDisplay:10.37,2013-10-04 12:10:00,
2013-10-04 08:11:00,64.2,58.3,30.12,East,90,0.0,0.0,81,0.00,CLR,,0.00,WeatherDisplay:10.37,2013-10-04 12:11:00,
2013-10-04 08:12:00,64.2,58.3,30.12,East,90,0.0,0.0,81,0.00,CLR,,0.00,WeatherDisplay:10.37,2013-10-04 12:12:00,
2013-10-04 08:17:00,64.4,58.4,30.12,East,90,0.0,0.0,81,0.00,CLR,,0.00,WeatherDisplay:10.37,2013-10-04 12:17:00,
2013-10-04 08:22:00,64.6,58.6,30.12,East,90,0.0,0.0,81,0.00,CLR,,0.00,WeatherDisplay:10.37,2013-10-04 12:22:00,
2013-10-04 08:27:00,64.8,58.8,30.12,NE,45,0.0,0.0,81,0.00,BKN,,0.00,WeatherDisplay:10.37,2013-10-04 12:27:00,
2013-10-04 08:32:00,65.1,59.1,30.12,NE,45,0.0,0.0,81,0.00,BKN,,0.00,WeatherDisplay:10.37,2013-10-04 12:32:00,
2013-10-04 08:37:00,65.3,59.3,30.12,NE,45,0.0,0.0,81,0.00,BKN,,0.00,WeatherDisplay:10.37,2013-10-04 12:37:00,
2013-10-04 08:42:00,65.5,59.5,30.12,NE,45,0.0,0.0,81,0.00,BKN,,0.00,WeatherDisplay:10.37,2013-10-04 12:42:00,
2013-10-04 08:47:00,65.8,59.8,30.09,NE,45,0.0,0.0,81,0.00,BKN,,0.00,WeatherDisplay:10.37,2013-10-04 12:47:00,
2013-10-04 08:52:00,66.0,60.0,30.09,NE,45,0.0,0.0,81,0.00,BKN,,0.00,WeatherDisplay:10.37,2013-10-04 12:52:00,
2013-10-04 08:57:00,66.4,60.4,30.09,SW,225,1.2,0.0,81,0.00,BKN,,0.00,WeatherDisplay:10.37,2013-10-04 12:57:00,
2013-10-04 09:00:00,75.7,61.3,30.20,North,9,6.0,8.0,61,0.00,CL,CL,0.00,WeatherDisplay:10.37,2013-10-04 13:00:00,
2013-10-04 09:02:00,66.7,60.7,30.12,South,180,2.3,2.3,81,0.00,BKN,,0.00,WeatherDisplay:10.37,2013-10-04 13:02:00,
2013-10-04 09:07:00,66.9,60.9,30.12,SW,225,2.3,2.3,81,0.00,BKN,,0.00,WeatherDisplay:10.37,2013-10-04 13:07:00,
2013-10-04 09:12:00,67.3,66.4,30.12,SW,225,5.8,5.8,97,0.00,SCT,,0.00,WeatherDisplay:10.37,2013-10-04 13:12:00,
2013-10-04 09:17:00,67.6,65.5,30.12,SW,225,3.5,3.5,93,0.00,SCT,,0.00,WeatherDisplay:10.37,2013-10-04 13:17:00,
2013-10-04 09:22:00,68.0,65.0,30.12,SW,225,2.3,2.3,90,0.00,SCT,,0.00,WeatherDisplay:10.37,2013-10-04 13:22:00,
2013-10-04 09:27:00,68.2,65.1,30.12,South,180,2.4,2.4,90,0.00,SCT,,0.00,WeatherDisplay:10.37,2013-10-04 13:27:00,
2013-10-04 09:32:00,68.4,65.3,30.12,SW,225,4.6,4.6,90,0.00,SCT,,0.00,WeatherDisplay:10.37,2013-10-04 13:32:00,
2013-10-04 09:37:00,68.7,65.0,30.12,South,180,2.9,2.9,88,0.00,SCT,,0.00,WeatherDisplay:10.37,2013-10-04 13:37:00,
2013-10-04 09:42:00,68.9,65.2,30.12,South,180,3.5,3.5,88,0.00,SCT,,0.00,WeatherDisplay:10.37,2013-10-04 13:42:00,
2013-10-04 09:47:00,69.4,64.7,30.12,South,180,4.6,4.6,85,0.00,SCT,,0.00,WeatherDisplay:10.37,2013-10-04 13:47:00,
2013-10-04 09:52:00,69.6,64.6,30.12,South,180,4.6,4.6,84,0.00,SCT,,0.00,WeatherDisplay:10.37,2013-10-04 13:52:00,
2013-10-04 09:57:00,70.0,63.9,30.12,SE,135,3.6,3.6,81,0.00,-RA,,0.00,WeatherDisplay:10.37,2013-10-04 13:57:00,
2013-10-04 10:00:00,77.5,63.0,30.20,North,11,5.0,7.0,61,0.00,CL,CL,0.00,WeatherDisplay:10.37,2013-10-04 14:00:00,
2013-10-04 10:02:00,70.2,64.1,30.12,SW,225,3.5,3.5,81,0.00,-RA,,0.00,WeatherDisplay:10.37,2013-10-04 14:02:00,
2013-10-04 10:07:00,70.5,64.0,30.12,SSW,202,4.6,4.6,80,0.00,-RA,,0.00,WeatherDisplay:10.37,2013-10-04 14:07:00,
2013-10-04 10:12:00,70.9,64.0,30.12,SSW,202,4.6,4.6,79,0.00,CLR,,0.00,WeatherDisplay:10.37,2013-10-04 14:12:00,
2013-10-04 10:17:00,71.4,64.2,30.12,WSW,248,5.8,5.8,78,0.00,CLR,,0.00,WeatherDisplay:10.37,2013-10-04 14:17:00,
2013-10-04 10:22:00,71.8,64.2,30.12,WSW,248,6.9,6.9,77,0.00,CLR,,0.00,WeatherDisplay:10.37,2013-10-04 14:22:00,
2013-10-04 10:27:00,72.1,64.5,30.12,SW,225,4.6,4.6,77,0.00,CLR,,0.00,WeatherDisplay:10.37,2013-10-04 14:27:00,
2013-10-04 10:32:00,72.5,64.5,30.12,SW,225,6.9,6.9,76,0.00,CLR,,0.00,WeatherDisplay:10.37,2013-10-04 14:32:00,
2013-10-04 10:37:00,72.7,64.7,30.12,South,180,5.8,5.8,76,0.00,CLR,,0.00,WeatherDisplay:10.37,2013-10-04 14:37:00,
2013-10-04 10:42:00,73.2,65.2,30.12,SW,225,5.6,5.6,76,0.00,CLR,,0.00,WeatherDisplay:10.37,2013-10-04 14:42:00,
2013-10-04 10:47:00,73.9,65.9,30.12,South,180,5.8,5.8,76,0.00,CLR,,0.00,WeatherDisplay:10.37,2013-10-04 14:47:00,
2013-10-04 10:52:00,74.3,65.1,30.12,SW,225,5.8,5.8,73,0.00,CLR,,0.00,WeatherDisplay:10.37,2013-10-04 14:52:00,
2013-10-04 10:57:00,74.8,65.6,30.12,WSW,248,5.8,5.8,73,0.00,CLR,,0.00,WeatherDisplay:10.37,2013-10-04 14:57:00,
2013-10-04 11:00:00,79.1,64.5,30.17,North,10,5.0,7.0,61,0.00,CL,CL,0.00,WeatherDisplay:10.37,2013-10-04 15:00:00,
2013-10-04 11:02:00,75.7,66.5,30.12,SW,225,4.7,4.7,73,0.00,CLR,,0.00,WeatherDisplay:10.37,2013-10-04 15:02:00,
2013-10-04 11:07:00,76.3,65.8,30.12,SW,225,5.8,5.8,70,0.00,CLR,,0.00,WeatherDisplay:10.37,2013-10-04 15:07:00,
2013-10-04 11:12:00,76.8,66.3,30.12,SW,225,5.8,5.8,70,0.00,CLR,,0.00,WeatherDisplay:10.37,2013-10-04 15:12:00,
2013-10-04 11:17:00,77.9,67.3,30.09,South,180,3.1,3.1,70,0.00,CLR,,0.00,WeatherDisplay:10.37,2013-10-04 15:17:00,
2013-10-04 11:22:00,78.3,67.7,30.09,South,180,5.9,5.9,70,0.00,CLR,,0.00,WeatherDisplay:10.37,2013-10-04 15:22:00,
2013-10-04 11:27:00,77.9,67.3,30.09,SW,225,5.8,5.8,70,0.00,CLR,,0.00,WeatherDisplay:10.37,2013-10-04 15:27:00,
2013-10-04 11:32:00,79.0,68.4,30.09,WSW,248,6.9,6.9,70,0.00,CLR,,0.00,WeatherDisplay:10.37,2013-10-04 15:32:00,
2013-10-04 11:37:00,78.1,67.5,30.09,WSW,248,6.2,6.2,70,0.00,CLR,,0.00,WeatherDisplay:10.37,2013-10-04 15:37:00,
2013-10-04 11:42:00,78.4,67.8,30.09,WSW,248,4.7,4.7,70,0.00,CLR,,0.00,WeatherDisplay:10.37,2013-10-04 15:42:00,
2013-10-04 11:47:00,79.3,68.7,30.09,SW,225,9.2,9.2,70,0.00,CLR,,0.00,WeatherDisplay:10.37,2013-10-04 15:47:00,
2013-10-04 11:52:00,80.1,69.4,30.09,WNW,292,3.5,3.5,70,0.00,CLR,,0.00,WeatherDisplay:10.37,2013-10-04 15:52:00,
2013-10-04 11:57:00,79.5,68.9,30.09,SW,225,5.8,5.8,70,0.00,CLR,,0.00,WeatherDisplay:10.37,2013-10-04 15:57:00,
2013-10-04 12:00:00,77.9,63.4,30.14,North,10,5.0,5.0,61,0.00,CL,CL,0.00,WeatherDisplay:10.37,2013-10-04 16:00:00,
2013-10-04 12:02:00,80.4,69.7,30.12,South,180,6.9,6.9,70,0.00,CLR,,0.00,WeatherDisplay:10.37,2013-10-04 16:02:00,
2013-10-04 12:07:00,82.0,70.9,30.12,SW,225,5.8,5.8,69,0.00,CLR,,0.00,WeatherDisplay:10.37,2013-10-04 16:07:00,
2013-10-04 12:12:00,81.5,70.3,30.12,SW,225,6.9,6.9,69,0.00,BKN,,0.00,WeatherDisplay:10.37,2013-10-04 16:12:00,
2013-10-04 12:17:00,82.4,71.2,30.12,WSW,248,5.8,5.8,69,0.00,BKN,,0.00,WeatherDisplay:10.37,2013-10-04 16:17:00,
2013-10-04 12:22:00,81.0,69.8,30.12,SW,225,7.1,7.1,69,0.00,BKN,,0.00,WeatherDisplay:10.37,2013-10-04 16:22:00,
2013-10-04 12:27:00,80.4,69.7,30.12,SSW,202,5.8,5.8,70,0.00,BKN,,0.00,WeatherDisplay:10.37,2013-10-04 16:27:00,
2013-10-04 12:32:00,78.8,68.2,30.12,WSW,248,4.6,4.6,70,0.00,BKN,,0.00,WeatherDisplay:10.37,2013-10-04 16:32:00,
2013-10-04 12:37:00,80.4,69.7,30.12,SW,225,4.6,4.6,70,0.00,BKN,,0.00,WeatherDisplay:10.37,2013-10-04 16:37:00,
2013-10-04 12:42:00,79.7,69.0,30.12,WSW,248,5.8,5.8,70,0.00,BKN,,0.00,WeatherDisplay:10.37,2013-10-04 16:42:00,
2013-10-04 12:47:00,80.4,69.7,30.09,South,180,3.5,3.5,70,0.00,BKN,,0.00,WeatherDisplay:10.37,2013-10-04 16:47:00,
2013-10-04 12:52:00,80.6,69.5,30.09,WNW,292,4.6,4.6,69,0.00,BKN,,0.00,WeatherDisplay:10.37,2013-10-04 16:52:00,
2013-10-04 12:57:00,79.0,68.4,30.09,WSW,248,5.8,5.8,70,0.00,SCT,,0.00,WeatherDisplay:10.37,2013-10-04 16:57:00,
2013-10-04 13:00:00,77.9,63.4,30.11,North,10,6.0,6.0,61,0.00,CL,CL,0.00,WeatherDisplay:10.37,2013-10-04 17:00:00,
2013-10-04 13:02:00,79.2,68.5,30.12,WSW,248,3.8,3.8,70,0.00,SCT,,0.00,WeatherDisplay:10.37,2013-10-04 17:02:00,
2013-10-04 13:07:00,79.0,68.4,30.12,WSW,248,3.6,3.6,70,0.00,SCT,,0.00,WeatherDisplay:10.37,2013-10-04 17:07:00,
2013-10-04 13:12:00,81.3,70.2,30.12,West,270,1.6,1.6,69,0.00,SCT,,0.00,WeatherDisplay:10.37,2013-10-04 17:12:00,
2013-10-04 13:17:00,80.2,69.6,30.12,West,270,4.6,4.6,70,0.00,SCT,,0.00,WeatherDisplay:10.37,2013-10-04 17:17:00,
2013-10-04 13:23:00,81.5,70.3,30.12,SW,225,3.5,4.3,69,0.00,SCT,,0.00,WeatherDisplay:10.37,2013-10-04 17:23:00,
2013-10-04 13:28:00,81.0,69.8,30.12,SW,225,4.6,4.6,69,0.00,SCT,,0.00,WeatherDisplay:10.37,2013-10-04 17:28:00,
2013-10-04 13:33:00,80.6,69.5,30.12,SW,225,5.8,5.8,69,0.00,SCT,,0.00,WeatherDisplay:10.37,2013-10-04 17:33:00,
2013-10-04 13:59:00,83.3,72.1,30.12,South,180,5.8,5.8,69,0.00,SCT,,0.00,WeatherDisplay:10.37,2013-10-04 17:59:00,
2013-10-04 14:00:00,77.3,62.8,30.11,North,9,5.0,5.0,61,0.00,CL,CL,0.00,WeatherDisplay:10.37,2013-10-04 18:00:00,
2013-10-04 14:04:00,82.9,71.7,30.09,SW,225,3.5,3.5,69,0.00,SCT,,0.00,WeatherDisplay:10.37,2013-10-04 18:04:00,
2013-10-04 14:09:00,82.2,71.0,30.09,West,270,3.1,3.1,69,0.00,SCT,,0.00,WeatherDisplay:10.37,2013-10-04 18:09:00,
2013-10-04 14:14:00,81.7,70.5,30.09,SW,225,2.3,2.3,69,0.00,SCT,,0.00,WeatherDisplay:10.37,2013-10-04 18:14:00,
2013-10-04 14:19:00,80.4,69.7,30.09,SW,225,3.5,3.5,70,0.00,SCT,,0.00,WeatherDisplay:10.37,2013-10-04 18:19:00,
2013-10-04 14:25:00,80.8,69.7,30.09,West,270,2.3,2.3,69,0.00,SCT,,0.00,WeatherDisplay:10.37,2013-10-04 18:25:00,
2013-10-04 14:30:00,81.0,69.8,30.09,SW,225,2.2,2.2,69,0.00,SCT,,0.00,WeatherDisplay:10.37,2013-10-04 18:30:00,
2013-10-04 14:35:00,81.1,70.0,30.09,South,180,2.0,0.0,69,0.00,SCT,,0.00,WeatherDisplay:10.37,2013-10-04 18:35:00,
2013-10-04 14:40:00,81.1,70.0,30.09,West,270,0.0,0.0,69,0.00,SCT,,0.00,WeatherDisplay:10.37,2013-10-04 18:40:00,
2013-10-04 14:45:00,81.1,70.0,30.09,SSW,202,2.4,2.4,69,0.00,SCT,,0.00,WeatherDisplay:10.37,2013-10-04 18:45:00,
2013-10-04 14:51:00,81.1,70.0,30.06,SW,225,3.5,3.5,69,0.00,SCT,,0.00,WeatherDisplay:10.37,2013-10-04 18:51:00,
2013-10-04 14:56:00,82.9,71.7,30.06,SE,135,5.8,5.8,69,0.00,SCT,,0.00,WeatherDisplay:10.37,2013-10-04 18:56:00,
2013-10-04 15:00:00,73.0,58.3,30.11,North,10,1.0,2.0,60,0.00,CL,CL,0.00,WeatherDisplay:10.37,2013-10-04 19:00:00,
2013-10-04 15:01:00,84.0,72.8,30.06,South,180,1.6,1.6,69,0.00,SCT,,0.00,WeatherDisplay:10.37,2013-10-04 19:01:00,
2013-10-04 15:07:00,84.6,72.8,30.06,SE,135,4.6,4.6,68,0.00,SCT,,0.00,WeatherDisplay:10.37,2013-10-04 19:07:00,
2013-10-04 15:12:00,85.6,73.9,30.06,South,180,3.5,3.5,68,0.00,SCT,,0.00,WeatherDisplay:10.37,2013-10-04 19:12:00,
2013-10-04 15:17:00,87.3,75.4,30.06,SSW,202,4.6,4.6,68,0.00,SCT,,0.00,WeatherDisplay:10.37,2013-10-04 19:17:00,
2013-10-04 15:22:00,86.4,74.5,30.06,SSW,202,3.5,3.5,68,0.00,SCT,,0.00,WeatherDisplay:10.37,2013-10-04 19:22:00,
2013-10-04 15:27:00,85.1,73.3,30.06,SW,225,2.3,2.3,68,0.00,SCT,,0.00,WeatherDisplay:10.37,2013-10-04 19:27:00,
2013-10-04 15:33:00,86.0,74.2,30.03,South,180,5.8,5.8,68,0.00,SCT,,0.00,WeatherDisplay:10.37,2013-10-04 19:33:00,
2013-10-04 15:38:00,87.1,75.2,30.03,SE,135,2.3,0.0,68,0.00,SCT,,0.00,WeatherDisplay:10.37,2013-10-04 19:38:00,
2013-10-04 15:43:00,86.5,74.7,30.03,SE,135,6.9,6.9,68,0.00,SCT,,0.00,WeatherDisplay:10.37,2013-10-04 19:43:00,
2013-10-04 15:48:00,86.7,74.9,30.03,South,180,4.6,4.6,68,0.00,SCT,,0.00,WeatherDisplay:10.37,2013-10-04 19:48:00,
2013-10-04 15:53:00,85.6,73.9,30.03,SW,225,4.6,4.6,68,0.00,SCT,,0.00,WeatherDisplay:10.37,2013-10-04 19:53:00,
2013-10-04 15:59:00,84.7,73.0,30.03,South,180,3.5,3.5,68,0.00,SCT,,0.00,WeatherDisplay:10.37,2013-10-04 19:59:00,
2013-10-04 16:00:00,67.5,53.5,30.14,North,9,0.0,0.0,61,0.00,CL,CL,0.00,WeatherDisplay:10.37,2013-10-04 20:00:00,
2013-10-04 16:04:00,84.7,73.0,30.06,East,90,1.2,0.0,68,0.00,SCT,,0.00,WeatherDisplay:10.37,2013-10-04 20:04:00,
2013-10-04 16:09:00,85.1,73.3,30.06,SW,225,4.3,4.3,68,0.00,SCT,,0.00,WeatherDisplay:10.37,2013-10-04 20:09:00,
2013-10-04 16:14:00,85.3,73.5,30.06,SW,225,2.9,2.9,68,0.00,SCT,,0.00,WeatherDisplay:10.37,2013-10-04 20:14:00,
2013-10-04 16:19:00,84.7,73.0,30.03,South,180,4.6,4.6,68,0.00,SCT,,0.00,WeatherDisplay:10.37,2013-10-04 20:19:00,
2013-10-04 16:24:00,85.1,73.3,30.03,SW,225,6.0,6.0,68,0.00,SCT,,0.00,WeatherDisplay:10.37,2013-10-04 20:24:00,
2013-10-04 16:30:00,84.9,73.2,30.03,South,180,4.6,4.6,68,0.00,SCT,,0.00,WeatherDisplay:10.37,2013-10-04 20:30:00,
2013-10-04 16:35:00,84.4,72.7,30.06,South,180,3.5,3.5,68,0.00,SCT,,0.00,WeatherDisplay:10.37,2013-10-04 20:35:00,
2013-10-04 16:40:00,85.3,73.5,30.06,SW,225,4.6,4.6,68,0.00,SCT,,0.00,WeatherDisplay:10.37,2013-10-04 20:40:00,
2013-10-04 16:45:00,83.8,72.6,30.06,South,180,5.8,6.0,69,0.00,SCT,,0.00,WeatherDisplay:10.37,2013-10-04 20:45:00,
2013-10-04 16:50:00,84.0,72.8,30.06,South,180,6.9,6.9,69,0.00,SCT,,0.00,WeatherDisplay:10.37,2013-10-04 20:50:00,
2013-10-04 16:55:00,83.1,71.9,30.06,SSW,202,4.6,4.6,69,0.00,SCT,,0.00,WeatherDisplay:10.37,2013-10-04 20:55:00,
2013-10-04 17:00:00,82.8,71.5,30.06,SW,225,3.5,3.5,69,0.00,SCT,,0.00,WeatherDisplay:10.37,2013-10-04 21:00:00,
2013-10-04 17:05:00,82.6,71.4,30.06,SW,225,3.5,3.5,69,0.00,SCT,,0.00,WeatherDisplay:10.37,2013-10-04 21:05:00,
2013-10-04 17:10:00,82.0,70.9,30.06,SW,225,4.7,4.7,69,0.00,SCT,,0.00,WeatherDisplay:10.37,2013-10-04 21:10:00,
2013-10-04 17:15:00,81.9,70.7,30.06,SSW,202,5.8,5.8,69,0.00,SCT,,0.00,WeatherDisplay:10.37,2013-10-04 21:15:00,
2013-10-04 17:20:00,82.4,71.2,30.06,South,180,4.6,4.6,69,0.00,SCT,,0.00,WeatherDisplay:10.37,2013-10-04 21:20:00,
2013-10-04 17:26:00,82.0,70.9,30.06,SW,225,5.8,5.8,69,0.00,SCT,,0.00,WeatherDisplay:10.37,2013-10-04 21:26:00,
2013-10-04 17:31:00,82.0,70.9,30.06,South,180,4.6,4.6,69,0.00,SCT,,0.00,WeatherDisplay:10.37,2013-10-04 21:31:00,
2013-10-04 17:36:00,83.3,72.1,30.06,South,180,6.9,6.9,69,0.00,SCT,,0.00,WeatherDisplay:10.37,2013-10-04 21:36:00,
2013-10-04 17:41:00,83.5,72.2,30.06,SW,225,9.2,9.2,69,0.00,SCT,,0.00,WeatherDisplay:10.37,2013-10-04 21:41:00,
2013-10-04 17:46:00,82.8,71.5,30.06,South,180,8.1,8.1,69,0.00,SCT,,0.00,WeatherDisplay:10.37,2013-10-04 21:46:00,
2013-10-04 17:51:00,82.2,71.0,30.06,South,180,5.9,5.9,69,0.00,SCT,,0.00,WeatherDisplay:10.37,2013-10-04 21:51:00,
2013-10-04 17:56:00,82.0,70.9,30.06,South,180,9.2,9.2,69,0.00,SCT,,0.00,WeatherDisplay:10.37,2013-10-04 21:56:00,
2013-10-04 18:00:00,62.8,52.5,30.11,North,9,0.0,0.0,69,0.00,CL,CL,0.00,WeatherDisplay:10.37,2013-10-04 22:00:00,
2013-10-04 18:01:00,82.2,71.0,30.06,SW,225,5.8,5.8,69,0.00,SCT,,0.00,WeatherDisplay:10.37,2013-10-04 22:01:00,
2013-10-04 18:06:00,82.2,71.0,30.06,South,180,4.6,4.6,69,0.00,SCT,,0.00,WeatherDisplay:10.37,2013-10-04 22:06:00,
2013-10-04 18:11:00,81.9,70.7,30.06,South,180,4.6,4.6,69,0.00,SCT,,0.00,WeatherDisplay:10.37,2013-10-04 22:11:00,
2013-10-04 18:17:00,81.3,70.2,30.06,South,180,6.9,6.9,69,0.00,SCT,,0.00,WeatherDisplay:10.37,2013-10-04 22:17:00,
2013-10-04 18:22:00,80.6,69.5,30.06,SW,225,8.1,8.1,69,0.00,SCT,,0.00,WeatherDisplay:10.37,2013-10-04 22:22:00,
2013-10-04 18:27:00,80.2,69.6,30.06,SW,225,4.6,4.6,70,0.00,SCT,,0.00,WeatherDisplay:10.37,2013-10-04 22:27:00,
2013-10-04 18:32:00,79.9,69.2,30.06,SW,225,3.5,3.5,70,0.00,SCT,,0.00,WeatherDisplay:10.37,2013-10-04 22:32:00,
2013-10-04 18:37:00,79.7,69.0,30.06,West,270,5.9,5.9,70,0.00,SCT,,0.00,WeatherDisplay:10.37,2013-10-04 22:37:00,
2013-10-04 18:42:00,79.7,69.0,30.06,South,180,8.1,8.1,70,0.00,SCT,,0.00,WeatherDisplay:10.37,2013-10-04 22:42:00,
2013-10-04 18:47:00,79.0,68.4,30.06,SW,225,5.6,5.6,70,0.00,SCT,,0.00,WeatherDisplay:10.37,2013-10-04 22:47:00,
2013-10-04 18:52:00,78.8,68.2,30.06,SW,225,3.8,3.8,70,0.00,SCT,,0.00,WeatherDisplay:10.37,2013-10-04 22:52:00,
2013-10-04 18:57:00,78.3,67.7,30.06,South,180,4.6,4.6,70,0.00,SCT,,0.00,WeatherDisplay:10.37,2013-10-04 22:57:00,
2013-10-04 19:00:00,61.3,52.2,30.14,North,9,0.0,0.0,72,0.00,CL,CL,0.00,WeatherDisplay:10.37,2013-10-04 23:00:00,
2013-10-04 19:02:00,77.9,67.3,30.06,South,180,3.5,3.5,70,0.00,SCT,,0.00,WeatherDisplay:10.37,2013-10-04 23:02:00,
2013-10-04 19:08:00,77.5,67.0,30.06,South,180,7.8,7.8,70,0.00,SCT,,0.00,WeatherDisplay:10.37,2013-10-04 23:08:00,
2013-10-04 19:13:00,77.2,66.6,30.06,SW,225,4.6,4.6,70,0.00,SCT,,0.00,WeatherDisplay:10.37,2013-10-04 23:13:00,
2013-10-04 19:18:00,76.8,66.3,30.06,South,180,4.6,4.6,70,0.00,SCT,,0.00,WeatherDisplay:10.37,2013-10-04 23:18:00,
2013-10-04 19:23:00,76.6,66.1,30.06,South,180,3.5,3.5,70,0.00,SCT,,0.00,WeatherDisplay:10.37,2013-10-04 23:23:00,
2013-10-04 19:28:00,76.3,65.8,30.06,SW,225,2.3,2.4,70,0.00,SCT,,0.00,WeatherDisplay:10.37,2013-10-04 23:28:00,
2013-10-04 19:33:00,75.9,65.4,30.06,SSW,202,2.3,2.3,70,0.00,SCT,,0.00,WeatherDisplay:10.37,2013-10-04 23:33:00,
2013-10-04 19:38:00,75.7,65.3,30.06,SW,225,1.2,1.2,70,0.00,SCT,,0.00,WeatherDisplay:10.37,2013-10-04 23:38:00,
2013-10-04 19:43:00,75.4,64.9,30.06,WSW,248,1.2,0.0,70,0.00,SCT,,0.00,WeatherDisplay:10.37,2013-10-04 23:43:00,
2013-10-04 19:48:00,74.8,64.8,30.03,SW,225,1.2,0.0,71,0.00,SCT,,0.00,WeatherDisplay:10.37,2013-10-04 23:48:00,
2013-10-04 19:53:00,74.7,64.6,30.03,South,180,1.2,0.0,71,0.00,SCT,,0.00,WeatherDisplay:10.37,2013-10-04 23:53:00,
2013-10-04 19:58:00,74.3,64.3,30.03,SSW,202,0.0,0.0,71,0.00,SCT,,0.00,WeatherDisplay:10.37,2013-10-04 23:58:00,
2013-10-04 20:00:00,60.1,32.3,30.17,North,9,0.0,0.0,35,0.00,CL,CL,0.00,WeatherDisplay:10.37,2013-10-05 00:00:00,
2013-10-04 20:03:00,73.9,63.9,30.06,South,180,0.0,0.0,71,0.00,SCT,,0.00,WeatherDisplay:10.37,2013-10-05 00:03:00,
2013-10-04 20:08:00,73.8,64.6,30.06,South,180,0.0,0.0,73,0.00,SCT,,0.00,WeatherDisplay:10.37,2013-10-05 00:08:00,
2013-10-04 20:13:00,73.4,64.2,30.06,East,90,0.0,0.0,73,0.00,SCT,,0.00,WeatherDisplay:10.37,2013-10-05 00:13:00,
2013-10-04 20:18:00,73.0,64.3,30.06,NE,45,0.0,0.0,74,0.00,SCT,,0.00,WeatherDisplay:10.37,2013-10-05 00:18:00,
2013-10-04 20:23:00,72.7,63.9,30.06,NE,45,0.0,0.0,74,0.00,SCT,,0.00,WeatherDisplay:10.37,2013-10-05 00:23:00,
2013-10-04 20:28:00,72.5,64.5,30.06,NE,45,0.0,0.0,76,0.00,SCT,,0.00,WeatherDisplay:10.37,2013-10-05 00:28:00,
2013-10-04 20:33:00,72.1,64.2,30.06,NE,45,0.0,0.0,76,0.00,SCT,,0.00,WeatherDisplay:10.37,2013-10-05 00:33:00,
2013-10-04 20:38:00,72.0,64.4,30.06,NNE,22,1.2,1.2,77,0.00,SCT,,0.00,WeatherDisplay:10.37,2013-10-05 00:38:00,
2013-10-04 20:43:00,71.8,64.2,30.06,NE,45,1.4,1.4,77,0.00,SCT,,0.00,WeatherDisplay:10.37,2013-10-05 00:43:00,
2013-10-04 20:48:00,71.8,64.2,30.06,NE,45,1.2,0.0,77,0.00,SCT,,0.00,WeatherDisplay:10.37,2013-10-05 00:48:00,
2013-10-04 20:53:00,71.8,64.2,30.06,NE,45,0.0,0.0,77,0.00,SCT,,0.00,WeatherDisplay:10.37,2013-10-05 00:53:00,
2013-10-04 20:58:00,71.8,64.2,30.06,NE,45,0.0,0.0,77,0.00,SCT,,0.00,WeatherDisplay:10.37,2013-10-05 00:58:00,
2013-10-04 21:00:00,59.0,34.1,30.14,North,9,0.0,0.0,39,0.00,CL,CL,0.00,WeatherDisplay:10.37,2013-10-05 01:00:00,
2013-10-04 21:03:00,71.4,64.2,30.09,NE,45,0.0,0.0,78,0.00,SCT,,0.00,WeatherDisplay:10.37,2013-10-05 01:03:00,
2013-10-04 21:09:00,71.2,64.0,30.09,NE,45,1.2,0.0,78,0.00,SCT,,0.00,WeatherDisplay:10.37,2013-10-05 01:09:00,
2013-10-04 21:14:00,71.4,64.6,30.09,NE,45,1.2,1.2,79,0.00,SCT,,0.00,WeatherDisplay:10.37,2013-10-05 01:14:00,
2013-10-04 21:19:00,71.6,64.7,30.06,SE,135,0.0,0.0,79,0.00,SCT,,0.00,WeatherDisplay:10.37,2013-10-05 01:19:00,
2013-10-04 21:24:00,71.6,64.7,30.06,SE,135,0.0,0.0,79,0.00,SCT,,0.00,WeatherDisplay:10.37,2013-10-05 01:24:00,
2013-10-04 21:29:00,71.8,64.9,30.06,SE,135,0.0,0.0,79,0.00,SCT,,0.00,WeatherDisplay:10.37,2013-10-05 01:29:00,
2013-10-04 21:34:00,71.8,65.3,30.09,SE,135,0.0,0.0,80,0.00,SCT,,0.00,WeatherDisplay:10.37,2013-10-05 01:34:00,
2013-10-04 21:39:00,72.0,65.1,30.09,SE,135,0.0,0.0,79,0.00,SCT,,0.00,WeatherDisplay:10.37,2013-10-05 01:39:00,
2013-10-04 21:44:00,72.0,65.1,30.09,SE,135,1.2,0.0,79,0.00,SCT,,0.00,WeatherDisplay:10.37,2013-10-05 01:44:00,
2013-10-04 21:49:00,72.0,65.5,30.09,SE,135,0.0,0.0,80,0.00,SCT,,0.00,WeatherDisplay:10.37,2013-10-05 01:49:00,
2013-10-04 21:54:00,72.0,65.5,30.09,SE,135,1.2,0.0,80,0.00,SCT,,0.00,WeatherDisplay:10.37,2013-10-05 01:54:00,
2013-10-04 21:59:00,72.0,65.5,30.09,SE,135,0.0,0.0,80,0.00,SCT,,0.00,WeatherDisplay:10.37,2013-10-05 01:59:00,
2013-10-04 22:00:00,58.3,37.0,30.14,North,9,0.0,0.0,45,0.00,CL,CL,0.00,WeatherDisplay:10.37,2013-10-05 02:00:00,
2013-10-04 22:04:00,72.0,65.5,30.06,SE,135,1.2,0.0,80,0.00,SCT,,0.00,WeatherDisplay:10.37,2013-10-05 02:04:00,
2013-10-04 22:09:00,71.8,65.3,30.06,SE,135,0.9,0.0,80,0.00,SCT,,0.00,WeatherDisplay:10.37,2013-10-05 02:09:00,
2013-10-04 22:14:00,71.8,65.3,30.06,South,180,1.2,1.2,80,0.00,SCT,,0.00,WeatherDisplay:10.37,2013-10-05 02:14:00,
2013-10-04 22:19:00,71.8,66.0,30.09,SW,225,1.2,1.2,82,0.00,SCT,,0.00,WeatherDisplay:10.37,2013-10-05 02:19:00,
2013-10-04 22:24:00,71.8,65.6,30.09,SSW,202,1.4,1.4,81,0.00,SCT,,0.00,WeatherDisplay:10.37,2013-10-05 02:24:00,
2013-10-04 22:29:00,71.8,65.6,30.09,South,180,3.5,0.0,81,0.00,SCT,,0.00,WeatherDisplay:10.37,2013-10-05 02:29:00,
2013-10-04 22:34:00,71.6,65.5,30.09,SSE,158,1.4,1.4,81,0.00,SCT,,0.00,WeatherDisplay:10.37,2013-10-05 02:34:00,
2013-10-04 22:39:00,71.6,65.8,30.09,South,180,1.2,1.2,82,0.00,SCT,,0.00,WeatherDisplay:10.37,2013-10-05 02:39:00,
2013-10-04 22:44:00,71.6,65.8,30.09,South,180,2.9,2.9,82,0.00,SCT,,0.00,WeatherDisplay:10.37,2013-10-05 02:44:00,
2013-10-04 22:49:00,71.6,65.8,30.09,South,180,2.3,2.3,82,0.00,SCT,,0.00,WeatherDisplay:10.37,2013-10-05 02:49:00,
2013-10-04 22:54:00,71.6,65.8,30.09,South,180,2.3,2.3,82,0.00,SCT,,0.00,WeatherDisplay:10.37,2013-10-05 02:54:00,
2013-10-04 22:59:00,71.8,66.3,30.09,South,180,2.3,2.9,83,0.00,SCT,,0.00,WeatherDisplay:10.37,2013-10-05 02:59:00,
2013-10-04 23:00:00,57.4,36.8,30.14,North,9,0.0,0.0,46,0.00,CL,CL,0.00,WeatherDisplay:10.37,2013-10-05 03:00:00,
2013-10-04 23:04:00,71.8,66.3,30.09,South,180,2.3,2.3,83,0.00,SCT,,0.00,WeatherDisplay:10.37,2013-10-05 03:04:00,
2013-10-04 23:09:00,71.6,66.2,30.09,SW,225,2.3,2.3,83,0.00,SCT,,0.00,WeatherDisplay:10.37,2013-10-05 03:09:00,